Starlink 31023

operational
NORAD ID: 58522 Int'l Des: 2023-191 Owner: SPXS Country: US Constellation: starlink
LEOCIRCULAR

About Starlink 31023

Description loading...

Live Position

Loading 3D Globe...

Upcoming Passes

Altitude History

Altitude vs Time

uPlot chart will show altitude changes over time

Two-Line Element Set

1 58522U 23191Q 25351.87332296 .00000809 00000-0 74960-4 0 9991
2 58522 43.0026 190.5801 0001016 251.9710 108.1021 15.02531038113136
Epoch: Dec 17, 2025 • Age: 13 hours

Current Status

Altitude 558.3 km
Velocity 7.59 km/s
Sub-Earth Point 16.19°N, 106°E
Launch Date Dec 7, 2023
Age 2 years
Type internet

Technical Details

Classification Payload
Mass 730.00 kg
Dry Mass 700.00 kg
Total Mass 730.00 kg
Length 0.30 m
Diameter 4.10 m
Span 29.00 m
Shape Box + pan
Manufacturer SPXS
Bus Type Starlink V2M
Phase Status In Orbit
Owner/State SPXS/US

Large Constellations

Loading constellations...